This is the latest recevied weather packets stored in our database for station/object K5GHS-1. If no packets are shown the sender has not sent any weather packets the latest 10 day(s).
| Time | Temp. | Humidity | Pressure | Rain* | Wind** | Luminosity | Snow |
|---|---|---|---|---|---|---|---|
| 1788653586 | 35.56° C | 45% | 1009.6 hPa | 0 mm | - | 14 W/m² | - |
| 1788653281 | 35.56° C | 45% | 1009.7 hPa | 0 mm | - | 17 W/m² | - |
| 1788652976 | 35.56° C | 45% | 1009.7 hPa | 0 mm | - | 18 W/m² | - |
| 1788652671 | 35.56° C | 44% | 1009.6 hPa | 0 mm | - | 19 W/m² | - |
| 1788652371 | 36.11° C | 44% | 1009.3 hPa | 0 mm | - | 21 W/m² | - |
| 1788652066 | 36.11° C | 43% | 1009.2 hPa | 0 mm | - | 23 W/m² | - |
| 1788651761 | 36.11° C | 43% | 1009.1 hPa | 0 mm | - | 25 W/m² | - |
| 1788651457 | 36.11° C | 43% | 1009.3 hPa | 0 mm | - | 26 W/m² | - |
| 1788651156 | 36.11° C | 43% | 1009.3 hPa | 0 mm | - | 28 W/m² | - |
| 1788650850 | 36.67° C | 42% | 1009.3 hPa | 0 mm | - | 29 W/m² | - |
| 1788650547 | 36.67° C | 42% | 1009.4 hPa | 0 mm | - | 32 W/m² | - |
| 1788650242 | 36.67° C | 42% | 1009.5 hPa | 0 mm | - | 33 W/m² | - |
| 1788649937 | 36.67° C | 42% | 1009.3 hPa | 0 mm | - | 35 W/m² | - |
| 1788649634 | 37.22° C | 41% | 1009.6 hPa | 0 mm | - | 37 W/m² | - |
| 1788649330 | 37.22° C | 40% | 1009.6 hPa | 0 mm | - | 162 W/m² | - |
| 1788649025 | 37.78° C | 40% | 1009.4 hPa | 0 mm | - | 58 W/m² | - |
| 1788648720 | 37.78° C | 40% | 1009.4 hPa | 0 mm | - | 224 W/m² | - |
| 1788648419 | 38.33° C | 39% | 1009.4 hPa | 0 mm | - | 235 W/m² | - |
| 1788648114 | 38.33° C | 39% | 1009.3 hPa | 0 mm | - | 244 W/m² | - |
| 1788647811 | 38.33° C | 39% | 1009.3 hPa | 0 mm | - | 275 W/m² | - |
| 1788647508 | 38.33° C | 39% | 1009.3 hPa | 0 mm | - | 323 W/m² | - |
| 1788647203 | 37.78° C | 39% | 1009.4 hPa | 0 mm | - | 332 W/m² | - |
| 1788646897 | 37.78° C | 39% | 1009.2 hPa | 0 mm | - | 323 W/m² | - |
| 1788646593 | 37.78° C | 39% | 1009.2 hPa | 0 mm | - | 350 W/m² | - |
| 1788646290 | 37.78° C | 40% | 1009.1 hPa | 0 mm | - | 362 W/m² | - |
* Rain latest hour (hover to see other rain measurements)
** Current wind speed in m/s (hover to see current wind gust speed)